Hourly Weather 8 Marta

Today, 24 October, Saturday

Time Temperature Precipitation Wind Pressure Humidity
00:00 +10°C° 0 mm 5 mps 735 mmHg 90%
01:00 +9°C° 0 mm 5 mps 736 mmHg 91%
02:00 +9°C° 0 mm 5 mps 736 mmHg 93%
03:00 +8°C° 0 mm 5 mps 736 mmHg 94%
04:00 +8°C° 0 mm 5 mps 736 mmHg 94%
05:00 +8°C° 0 mm 5 mps 736 mmHg 94%
06:00 +8°C° 0 mm 5 mps 736 mmHg 94%
07:00 +8°C° 0 mm 5 mps 737 mmHg 92%
08:00 +8°C° 0 mm 5 mps 737 mmHg 90%
09:00 +8°C° 0 mm 5 mps 737 mmHg 87%
10:00 +10°C° 0 mm 4 mps 738 mmHg 84%
11:00 +10°C° 0 mm 4 mps 738 mmHg 80%
12:00 +11°C° 0 mm 4 mps 738 mmHg 76%
13:00 +11°C° 0 mm 3 mps 738 mmHg 74%
14:00 +11°C° 0 mm 3 mps 738 mmHg 72%
15:00 +12°C° 0 mm 3 mps 738 mmHg 71%
16:00 +11°C° 0 mm 3 mps 738 mmHg 75%
17:00 +10°C° 0 mm 3 mps 738 mmHg 79%
18:00 +10°C° 0 mm 2 mps 738 mmHg 83%
19:00 +9°C° 0.1 mm 2 mps 738 mmHg 84%
20:00 +9°C° 0.1 mm 2 mps 738 mmHg 86%
21:00 +10°C° 0.1 mm 1 mps 738 mmHg 87%
22:00 +10°C° 1.5 mm 1 mps 737 mmHg 90%
23:00 +10°C° 1.5 mm 1 mps 737 mmHg 93%

Tomorrow, 25 October, Sunday

Time Temperature Precipitation Wind Pressure Humidity
00:00 +10°C° 1.5 mm 1 mps 736 mmHg 96%
01:00 +10°C° 2.1 mm 1 mps 736 mmHg 96%
02:00 +9°C° 2.1 mm 1 mps 736 mmHg 96%
03:00 +9°C° 2.1 mm 1 mps 737 mmHg 97%
04:00 +8°C° 0.2 mm 2 mps 737 mmHg 95%
05:00 +8°C° 0.2 mm 2 mps 737 mmHg 94%
06:00 +8°C° 0.2 mm 3 mps 737 mmHg 93%
07:00 +7°C° 0 mm 4 mps 738 mmHg 91%
08:00 +7°C° 0 mm 4 mps 738 mmHg 89%
09:00 +7°C° 0 mm 5 mps 739 mmHg 87%
10:00 +7°C° 0 mm 5 mps 739 mmHg 86%
11:00 +7°C° 0 mm 4 mps 739 mmHg 85%
12:00 +7°C° 0 mm 4 mps 740 mmHg 84%
13:00 +8°C° 0.1 mm 4 mps 740 mmHg 83%
14:00 +8°C° 0.1 mm 4 mps 740 mmHg 82%
15:00 +10°C° 0.1 mm 4 mps 741 mmHg 80%
16:00 +8°C° 0 mm 4 mps 741 mmHg 83%
17:00 +8°C° 0 mm 3 mps 741 mmHg 85%
18:00 +8°C° 0 mm 2 mps 741 mmHg 88%
19:00 +8°C° 0 mm 3 mps 742 mmHg 89%
20:00 +8°C° 0 mm 3 mps 742 mmHg 89%
21:00 +7°C° 0 mm 3 mps 743 mmHg 90%
22:00 +7°C° 0 mm 3 mps 743 mmHg 87%
23:00 +8°C° 0 mm 3 mps 743 mmHg 84%

Day after tomorrow, 26 October, Monday

Time Temperature Precipitation Wind Pressure Humidity
00:00 +8°C° 0 mm 3 mps 744 mmHg 81%
01:00 +8°C° 0 mm 3 mps 744 mmHg 80%
02:00 +8°C° 0 mm 3 mps 744 mmHg 80%
03:00 +7°C° 0 mm 3 mps 745 mmHg 80%
04:00 +7°C° 0 mm 3 mps 745 mmHg 83%
05:00 +5°C° 0 mm 3 mps 745 mmHg 86%
06:00 +4°C° 0 mm 3 mps 746 mmHg 89%
07:00 +5°C° 0 mm 3 mps 746 mmHg 89%
08:00 +6°C° 0 mm 2 mps 746 mmHg 88%
09:00 +6°C° 0 mm 2 mps 746 mmHg 87%
10:00 +7°C° 0 mm 2 mps 747 mmHg 82%
11:00 +8°C° 0 mm 2 mps 747 mmHg 78%
12:00 +9°C° 0 mm 2 mps 747 mmHg 73%
13:00 +11°C° 0 mm 1 mps 747 mmHg 71%
14:00 +11°C° 0 mm 1 mps 748 mmHg 69%
15:00 +11°C° 0 mm 1 mps 748 mmHg 68%
16:00 +10°C° 0 mm 1 mps 748 mmHg 72%
17:00 +9°C° 0 mm 1 mps 748 mmHg 77%
18:00 +9°C° 0 mm 1 mps 748 mmHg 82%
19:00 +7°C° 0 mm 2 mps 748 mmHg 84%
20:00 +7°C° 0 mm 2 mps 749 mmHg 86%
21:00 +6°C° 0 mm 2 mps 749 mmHg 88%
22:00 +6°C° 0 mm 2 mps 749 mmHg 89%
23:00 +6°C° 0 mm 2 mps 749 mmHg 90%

, 27 October, Tuesday

Time Temperature Precipitation Wind Pressure Humidity
00:00 +5°C° 0 mm 2 mps 750 mmHg 91%
01:00 +5°C° 0 mm 2 mps 750 mmHg 92%
02:00 +5°C° 0 mm 2 mps 750 mmHg 92%
03:00 +4°C° 0 mm 2 mps 750 mmHg 93%
04:00 +3°C° 0 mm 3 mps 750 mmHg 93%
05:00 +3°C° 0 mm 3 mps 750 mmHg 94%
06:00 +3°C° 0 mm 3 mps 751 mmHg 94%
07:00 +3°C° 0 mm 3 mps 751 mmHg 93%
08:00 +4°C° 0 mm 3 mps 751 mmHg 91%
09:00 +4°C° 0 mm 3 mps 751 mmHg 90%
10:00 +5°C° 0 mm 3 mps 751 mmHg 86%
11:00 +6°C° 0 mm 4 mps 751 mmHg 82%
12:00 +7°C° 0 mm 4 mps 751 mmHg 78%
13:00 +7°C° 0 mm 4 mps 751 mmHg 77%
14:00 +8°C° 0 mm 4 mps 751 mmHg 75%
15:00 +8°C° 0 mm 4 mps 751 mmHg 74%
16:00 +7°C° 0 mm 4 mps 751 mmHg 77%
17:00 +6°C° 0 mm 4 mps 751 mmHg 81%
18:00 +5°C° 0 mm 3 mps 751 mmHg 84%
19:00 +5°C° 0 mm 3 mps 751 mmHg 85%
20:00 +5°C° 0 mm 3 mps 751 mmHg 85%
21:00 +4°C° 0 mm 3 mps 751 mmHg 85%
22:00 +4°C° 0 mm 3 mps 751 mmHg 84%
23:00 +4°C° 0 mm 4 mps 751 mmHg 82%

27 October, Tuesday

Time Temperature Precipitation Wind Pressure Humidity
00:00 +5°C° 0 mm 2 mps 750 mmHg 91%
01:00 +5°C° 0 mm 2 mps 750 mmHg 92%
02:00 +5°C° 0 mm 2 mps 750 mmHg 92%
03:00 +4°C° 0 mm 2 mps 750 mmHg 93%
04:00 +3°C° 0 mm 3 mps 750 mmHg 93%
05:00 +3°C° 0 mm 3 mps 750 mmHg 94%
06:00 +3°C° 0 mm 3 mps 751 mmHg 94%
07:00 +3°C° 0 mm 3 mps 751 mmHg 93%
08:00 +4°C° 0 mm 3 mps 751 mmHg 91%
09:00 +4°C° 0 mm 3 mps 751 mmHg 90%
10:00 +5°C° 0 mm 3 mps 751 mmHg 86%
11:00 +6°C° 0 mm 4 mps 751 mmHg 82%
12:00 +7°C° 0 mm 4 mps 751 mmHg 78%
13:00 +7°C° 0 mm 4 mps 751 mmHg 77%
14:00 +8°C° 0 mm 4 mps 751 mmHg 75%
15:00 +8°C° 0 mm 4 mps 751 mmHg 74%
16:00 +7°C° 0 mm 4 mps 751 mmHg 77%
17:00 +6°C° 0 mm 4 mps 751 mmHg 81%
18:00 +5°C° 0 mm 3 mps 751 mmHg 84%
19:00 +5°C° 0 mm 3 mps 751 mmHg 85%
20:00 +5°C° 0 mm 3 mps 751 mmHg 85%
21:00 +4°C° 0 mm 3 mps 751 mmHg 85%
22:00 +4°C° 0 mm 3 mps 751 mmHg 84%
23:00 +4°C° 0 mm 4 mps 751 mmHg 82%

28 October, Wednesday

Time Temperature Precipitation Wind Pressure Humidity
00:00 +4°C° 0 mm 4 mps 751 mmHg 81%
01:00 +3°C° 0 mm 4 mps 751 mmHg 81%
02:00 +3°C° 0 mm 3 mps 751 mmHg 81%
03:00 +3°C° 0 mm 3 mps 751 mmHg 81%
04:00 +2°C° 0 mm 3 mps 751 mmHg 79%
05:00 +2°C° 0 mm 3 mps 751 mmHg 78%
06:00 +2°C° 0 mm 3 mps 751 mmHg 77%
07:00 +1°C° 0 mm 4 mps 751 mmHg 74%
08:00 +3°C° 0 mm 4 mps 751 mmHg 71%
09:00 +3°C° 0 mm 4 mps 751 mmHg 68%
10:00 +4°C° 0 mm 4 mps 751 mmHg 64%
11:00 +5°C° 0 mm 4 mps 752 mmHg 60%
12:00 +6°C° 0 mm 4 mps 752 mmHg 56%
13:00 +6°C° 0 mm 4 mps 751 mmHg 54%
14:00 +6°C° 0 mm 4 mps 751 mmHg 52%
15:00 +7°C° 0 mm 4 mps 751 mmHg 50%
16:00 +5°C° 0 mm 4 mps 751 mmHg 53%
17:00 +4°C° 0 mm 4 mps 751 mmHg 56%
18:00 +3°C° 0 mm 3 mps 751 mmHg 59%
19:00 +3°C° 0 mm 3 mps 751 mmHg 59%
20:00 +1°C° 0 mm 4 mps 751 mmHg 60%
21:00 +1°C° 0 mm 4 mps 751 mmHg 60%
22:00 +1°C° 0 mm 3 mps 751 mmHg 61%
23:00 +1°C° 0 mm 3 mps 751 mmHg 62%

29 October, Thursday

Time Temperature Precipitation Wind Pressure Humidity
00:00 +1°C° 0 mm 3 mps 751 mmHg 62%
01:00 0°C° 0 mm 3 mps 750 mmHg 63%
02:00 0°C° 0 mm 3 mps 750 mmHg 65%
03:00 0°C° 0 mm 3 mps 750 mmHg 66%
04:00 0°C° 0 mm 3 mps 750 mmHg 67%
05:00 -1°C° 0 mm 3 mps 750 mmHg 67%
06:00 -1°C° 0 mm 3 mps 750 mmHg 68%
07:00 0°C° 0 mm 3 mps 749 mmHg 67%
08:00 -1°C° 0 mm 4 mps 749 mmHg 66%
09:00 0°C° 0 mm 4 mps 749 mmHg 65%
10:00 +1°C° 0 mm 4 mps 749 mmHg 63%
11:00 +3°C° 0 mm 4 mps 749 mmHg 61%
12:00 +4°C° 0 mm 4 mps 749 mmHg 59%
13:00 +4°C° 0 mm 4 mps 748 mmHg 59%
14:00 +4°C° 0 mm 4 mps 748 mmHg 60%
15:00 +5°C° 0 mm 4 mps 748 mmHg 60%
16:00 +4°C° 0 mm 3 mps 748 mmHg 63%
17:00 +4°C° 0 mm 3 mps 748 mmHg 65%
18:00 +4°C° 0 mm 3 mps 748 mmHg 68%
19:00 +3°C° 0 mm 3 mps 747 mmHg 69%
20:00 +3°C° 0 mm 3 mps 747 mmHg 69%
21:00 +3°C° 0 mm 3 mps 747 mmHg 70%
22:00 +3°C° 0 mm 3 mps 747 mmHg 70%
23:00 +4°C° 0 mm 2 mps 747 mmHg 70%
Show more